This demonstration page uses our WeatherBlox Daily Observations layout. Learn more.

Left ArrowRight Arrow

38.20091, -84.87328

Hourly Observations for August 11, 2021

Temp ( °F °C ) Dew Point ( °F °C ) Humidity (%) Winds ( mph kmh ) Pressure ( in mb ) Visibility ( mi km ) Precip ( " mm )
12:53 am 00:53 Clear 78 25.6 75 23.9 90 90 SW 5 7 30.06 1018 10 16 0.00 0.00
1:53 am 01:53 Clear 77 25 75 23.9 94 94 SW 3 6 30.04 1017 10 16 0.00 0.00
2:53 am 02:53 Clear 76 24.4 74 23.3 94 94 SSW 5 7 30.04 1017 10 16 0.00 0.00
3:53 am 03:53 Mostly Clear 77 25 75 23.9 94 94 S 5 7 30.04 1017 10 16 0.00 0.00
4:53 am 04:53 Clear 77 25 74 23.3 90 90 S 5 7 30.04 1017 10 16 0.00 0.00
5:53 am 05:53 Mostly Clear 77 25 74 23.3 90 90 SSW 7 11 30.03 1017 10 16 0.00 0.00
6:53 am 06:53 Partly Cloudy 77 25 74 23.3 90 90 SSW 8 13 30.05 1018 10 16 0.00 0.00
7:53 am 07:53 Sunny 77 25 74 23.3 90 90 SSW 9 15 30.05 1018 10 16 0.00 0.00
8:53 am 08:53 Sunny 81 27.2 74 23.3 79 79 SSW 9 15 30.06 1018 10 16 0.00 0.00
9:53 am 09:53 Mostly Sunny 84 28.9 74 23.3 72 72 SSW 15 24 30.05 1018 10 16 0.00 0.00
10:53 am 10:53 Sunny 87 30.6 75 23.9 67 67 SW 14 22 30.05 1018 10 16 0.00 0.00
11:53 am 11:53 Sunny 89 31.7 75 23.9 63 63 SW 13 20 30.06 1018 10 16 0.00 0.00
12:53 pm 12:53 Mostly Sunny 90 32.2 73 22.8 58 58 WSW 16 26 30.07 1018 10 16 0.00 0.00
1:53 pm 13:53 Mostly Sunny 91 32.8 73 22.8 56 56 SW 16 26 30.07 1018 10 16 0.00 0.00
2:53 pm 14:53 Mostly Sunny 91 32.8 73 22.8 56 56 WSW 14 22 30.04 1017 10 16 0.00 0.00
3:53 pm 15:53 Partly Cloudy 93 33.9 73 22.8 52 52 WSW 15 24 30.01 1016 10 16 0.00 0.00
4:53 pm 16:53 Mostly Sunny 92 33.3 70 21.1 49 49 SW 16 26 29.99 1016 10 16 0.00 0.00
5:53 pm 17:53 Sunny 91 32.8 71 21.7 52 52 SW 12 19 29.98 1015 10 16 0.00 0.00
6:53 pm 18:53 Sunny 90 32.2 72 22.2 56 56 SSW 8 13 29.96 1015 10 16 0.00 0.00
7:53 pm 19:53 Sunny 88 31.1 73 22.8 61 61 S 8 13 29.96 1015 10 16 0.00 0.00
8:53 pm 20:53 Clear 85 29.4 74 23.3 70 70 S 9 15 29.99 1016 10 16 0.00 0.00
9:53 pm 21:53 Clear 84 28.9 74 23.3 72 72 SSW 9 15 30.01 1016 10 16 0.00 0.00
10:53 pm 22:53 Clear 80 26.7 74 23.3 82 82 SSW 5 7 30.02 1017 10 16 0.00 0.00
11:53 pm 23:53 Clear 80 26.7 74 23.3 82 82 SW 5 7 30.01 1016 10 16 0.00 0.00

Powered by AerisWeather